East Milton, MA

4:52 AM EDT on March 25, 2017 (GMT -0400)
East Milton

Weather History for KMQE - April, 2014

Change the Weather History Date:

Monday, April 7, 2014

  Actual Average (KOWD) Record (KOWD)
Temperature  
Mean Temperature 50 °F -  
Max Temperature 59 °F 52 °F 73 °F (1997)
Min Temperature 42 °F 33 °F 24 °F (2013)
Degree Days  
Heating Degree Days 14    
Moisture  
Dew Point 23 °F    
Average Humidity 39    
Maximum Humidity 97    
Minimum Humidity 22    
Precipitation  
Precipitation 0.03 in - - ()
Sea Level Pressure  
Sea Level Pressure 30.16 in    
Wind  
Wind Speed 9 mph (SSE)    
Max Wind Speed 20 mph    
Max Gust Speed 29 mph    
Averages and records for this station are not official NWS values.
T = Trace of Precipitation, MM = Missing Value Source: NWS Daily Summary

Daily Weather History Graph

Daily Weather History Graph

Search for Another Location

Airport or City:

Trip Planner

Search our weather history database for the weather conditions in past years. The results will help you decide how hot, cold, wet, or windy it might be!

Date:

Astronomy

Apr. 07, 2014 Rise Set
Actual Time 6:16 AM EDT 7:16 PM EDT
Civil Twilight 5:48 AM EDT 7:45 PM EDT
Nautical Twilight 5:14 AM EDT 8:19 PM EDT
Astronomical Twilight 4:38 AM EDT 8:55 PM EDT
Moon 12:07 PM EDT (4/7) 1:55 AM EDT (4/7)
Length of Visible Light 13h 57m
Length of Day
12h 59m
First Quarter, 53% of the Moon is Illuminated
Apr 7
First Quarter
Apr 15
Full
Apr 22
Last Quarter
Apr 29
New
May 6
First Quarter

Hourly Weather History & Observations

Time (EDT) Temp. Windchill Dew Point Humidity Pressure Visibility Wind Dir Wind Speed Gust Speed Precip Events Conditions
12:54 AM 45.0 °F 39.7 °F 19.0 °F 36% 30.20 in - West 10.4 mph - N/A   Unknown
1:54 AM 45.0 °F 40.1 °F 19.0 °F 36% 30.19 in - West 9.2 mph - N/A   Unknown
2:54 AM 45.0 °F 39.7 °F 21.0 °F 39% 30.19 in - West 10.4 mph - N/A   Unknown
3:54 AM 44.1 °F 39.0 °F 21.0 °F 40% 30.20 in - West 9.2 mph - N/A   Unknown
4:54 AM 45.0 °F 41.2 °F 19.9 °F 37% 30.21 in - WSW 6.9 mph - N/A   Unknown
5:54 AM 45.0 °F 43.5 °F 19.9 °F 37% 30.21 in - West 3.5 mph - N/A   Unknown
6:54 AM 46.0 °F - 19.9 °F 35% 30.24 in - Calm Calm - N/A   Unknown
7:54 AM 50.0 °F - 19.9 °F 31% 30.23 in - East 4.6 mph - N/A   Unknown
8:54 AM 51.1 °F - 21.0 °F 31% 30.25 in - SE 4.6 mph - N/A   Unknown
9:54 AM 53.1 °F - 21.9 °F 30% 30.25 in - SSE 6.9 mph - N/A   Unknown
10:54 AM 55.9 °F - 23.0 °F 28% 30.24 in - Variable 5.8 mph - N/A   Unknown
11:54 AM 59.0 °F - 23.0 °F 25% 30.23 in - South 9.2 mph 24.2 mph N/A   Unknown
12:54 PM 59.0 °F - 23.0 °F 25% 30.22 in - South 15.0 mph 24.2 mph N/A   Unknown
1:54 PM 57.0 °F - 18.0 °F 22% 30.19 in - South 19.6 mph 28.8 mph N/A   Unknown
2:54 PM 54.0 °F - 19.0 °F 25% 30.16 in - SSE 12.7 mph 21.9 mph N/A   Unknown
3:54 PM 54.0 °F - 19.0 °F 25% 30.14 in - SSE 15.0 mph 20.7 mph N/A   Unknown
4:54 PM 52.0 °F - 16.0 °F 24% 30.14 in - SSE 5.8 mph 18.4 mph N/A   Unknown
5:54 PM 48.9 °F - 19.0 °F 31% 30.12 in - SSE 9.2 mph - N/A   Unknown
6:54 PM 48.0 °F - 26.1 °F 42% 30.12 in - SSE 9.2 mph - N/A   Unknown
7:54 PM 46.9 °F - 30.9 °F 54% 30.09 in - ESE 10.4 mph - N/A   Unknown
8:54 PM 46.0 °F 40.2 °F 25.0 °F 44% 30.05 in - ESE 12.7 mph 21.9 mph N/A   Unknown
9:54 PM 45.0 °F 39.3 °F 32.0 °F 60% 30.03 in - SE 11.5 mph 19.6 mph N/A   Unknown
10:54 PM 42.1 °F 33.9 °F 37.9 °F 85% 29.96 in - ESE 17.3 mph - 0.01 in   Unknown
11:54 PM 43.0 °F 35.4 °F 42.1 °F 97% 29.91 in - ESE 16.1 mph - 0.02 in   Unknown